Showing default

DRAGRACER 2(AUGURY), 46955

Orbit data source: Space-Track

DRAGRACER 2(AUGURY), 46955 is a payload satellite owned by TriSept (US) in SSO that was launched on Fri, 20 Nov 2020 UTC via an ELECTRON launch vehicle from the Rocket Lab Launch Complex (RLLC). Payload-class satellites include a variety of spacecraft equipped with specific instruments for various scientific and technological missions. These include communications satellites like Starlink; space stations such as the ISS; scientific satellites like the Hubble; Earth observation satellites from companies like Planet Labs, Umbra, and HawkEye 360; GPS; miniature CubeSats for education and research; and military/defense satellites.

Loading next visibility...
Identifier
46955, 2020-085AC
Orbit
SSO
Country
Flag of USUS
Related business
Manufacturer
Millenium ES
Mission
Operational Commercial Technology
Bus & Motor
CUBESAT 6U, Unknown motor
Mass
12 kg wet, 12 kg dry
Launch date (UTC)
2020-11-20 (6 years ago)
Launch vehicle
ELECTRON
Launch site
Rocket Lab Launch Complex (RLLC)
Object type
Payload
Rocket body
Debris
Shape & HBR
Box, 0.2 m
Radar Cross Section
0.080 m², Medium (>0.1 m² and < 1m²)

Expand to show TLE details & history
Last TLE update: 15 hours ago

TLE from 15 hours ago
0 DRAGRACER 2(AUGURY)
1 46955U 20085AC  26258.34280427  .00052370  00000-0  30742-3 0  9993
2 46955  97.5699 102.6295 0002271 284.8375  75.2639 15.78137867326051
Epoch: 2026-09-15T08:13Z
TLE epoch observation values (Epoch: 2026-09-15T08:13:38.288Z)
Latitude
-0.00009°
Longitude
-15.09014°
Altitude
338.493 km
Speed
7.706 km/s
True Right ascension
06h 50m 31s
True Declination
0° 00' 00"
Sunlit
Object was in daylight at epoch
Visualization orbit readout
Latitude
Unknown
Longitude
Unknown
Altitude
Unknown
Speed
Unknown
Apparent Right ascension
Unknown
Apparent Declination
Unknown
Sunlit
N/A
Visualization observer readout
Local Sidereal Time
16:19:03
Azimuth
Unknown
Elevation
Unknown
Doppler factor
Unknown
Orbital elements
Apogee altitude
334.137 km
Perigee altitude
331.089 km
Semi-major axis
6,710.75 km
Eccentricity
0.00023
Inclination
97.5699°
RAAN
102.6295°
Arg. of periapsis
284.8375°
True anomaly
75.28907°
Mean anomaly
75.2639°
Eccentric anomaly
75.27648°
Mean motion
3.94809 °/min
Orbital period
91.18 mins
BSTAR
0.00030742
Loading maneuver chart data...
Computing Atmospheric mass density...

Documentation

Showing up to 5 results
|